When you browse on this site, cookies collect data to enhance your experience and personalize the content and advertising you see.
Visit our Privacy Policy to learn more. By continuing to use the site, you agree to this use of cookies and data.
  • In Deutschland
  • Länderverzeichnis
  • Für 7 Tage
  • Wassertemperatur
  • Wetterkarte
  • Widgets
  • user-avatar
    Anmelden

    Stündliche Wetter Pabna

    Heute, 23 Januar, Donnerstag

    Zeit Temperatur Niederschläge Wind Luftdruck Luftfeuchtigkeit
    00:00 +19°C° 0 mm 1 m/S 760 mmHg 48%
    01:00 +18°C° 0 mm 1 m/S 759 mmHg 49%
    02:00 +18°C° 0 mm 1 m/S 759 mmHg 50%
    03:00 +16°C° 0 mm 1 m/S 759 mmHg 51%
    04:00 +16°C° 0 mm 1 m/S 759 mmHg 50%
    05:00 +16°C° 0 mm 1 m/S 759 mmHg 50%
    06:00 +18°C° 0 mm 1 m/S 759 mmHg 50%
    07:00 +19°C° 0 mm 1 m/S 760 mmHg 47%
    08:00 +20°C° 0 mm 1 m/S 760 mmHg 45%
    09:00 +21°C° 0 mm 1 m/S 761 mmHg 43%
    10:00 +22°C° 0 mm 1 m/S 761 mmHg 40%
    11:00 +23°C° 0 mm 2 m/S 760 mmHg 36%
    12:00 +24°C° 0 mm 2 m/S 760 mmHg 33%
    13:00 +25°C° 0 mm 3 m/S 759 mmHg 31%
    14:00 +26°C° 0 mm 3 m/S 758 mmHg 30%
    15:00 +27°C° 0 mm 4 m/S 757 mmHg 28%
    16:00 +25°C° 0 mm 3 m/S 757 mmHg 32%
    17:00 +23°C° 0 mm 2 m/S 757 mmHg 35%
    18:00 +21°C° 0 mm 2 m/S 756 mmHg 38%
    19:00 +21°C° 0 mm 1 m/S 757 mmHg 39%
    20:00 +20°C° 0 mm 1 m/S 758 mmHg 39%
    21:00 +19°C° 0 mm 1 m/S 758 mmHg 40%
    22:00 +19°C° 0 mm 1 m/S 758 mmHg 41%
    23:00 +18°C° 0 mm 1 m/S 758 mmHg 42%

    Morgen, 24 Januar, Freitag

    Zeit Temperatur Niederschläge Wind Luftdruck Luftfeuchtigkeit
    00:00 +16°C° 0 mm 1 m/S 758 mmHg 42%
    01:00 +16°C° 0 mm 2 m/S 758 mmHg 45%
    02:00 +15°C° 0 mm 2 m/S 758 mmHg 48%
    03:00 +15°C° 0 mm 2 m/S 758 mmHg 51%
    04:00 +14°C° 0 mm 2 m/S 758 mmHg 53%
    05:00 +14°C° 0 mm 2 m/S 759 mmHg 55%
    06:00 +14°C° 0 mm 2 m/S 759 mmHg 57%
    07:00 +15°C° 0 mm 2 m/S 760 mmHg 53%
    08:00 +17°C° 0 mm 2 m/S 760 mmHg 50%
    09:00 +18°C° 0 mm 3 m/S 761 mmHg 47%
    10:00 +20°C° 0 mm 3 m/S 761 mmHg 42%
    11:00 +21°C° 0 mm 3 m/S 761 mmHg 37%
    12:00 +24°C° 0 mm 3 m/S 760 mmHg 33%
    13:00 +24°C° 0 mm 3 m/S 759 mmHg 30%
    14:00 +25°C° 0 mm 3 m/S 759 mmHg 28%
    15:00 +25°C° 0 mm 3 m/S 758 mmHg 26%
    16:00 +24°C° 0 mm 3 m/S 757 mmHg 29%
    17:00 +21°C° 0 mm 3 m/S 757 mmHg 32%
    18:00 +19°C° 0 mm 2 m/S 757 mmHg 36%
    19:00 +18°C° 0 mm 2 m/S 758 mmHg 37%
    20:00 +18°C° 0 mm 2 m/S 758 mmHg 39%
    21:00 +17°C° 0 mm 2 m/S 759 mmHg 41%
    22:00 +16°C° 0 mm 2 m/S 759 mmHg 42%
    23:00 +16°C° 0 mm 2 m/S 759 mmHg 44%

    übermorgen, 25 Januar, Samstag

    Zeit Temperatur Niederschläge Wind Luftdruck Luftfeuchtigkeit
    00:00 +15°C° 0 mm 2 m/S 759 mmHg 45%
    01:00 +15°C° 0 mm 2 m/S 758 mmHg 48%
    02:00 +15°C° 0 mm 2 m/S 758 mmHg 50%
    03:00 +14°C° 0 mm 2 m/S 758 mmHg 52%
    04:00 +14°C° 0 mm 2 m/S 758 mmHg 55%
    05:00 +13°C° 0 mm 2 m/S 758 mmHg 58%
    06:00 +13°C° 0 mm 2 m/S 758 mmHg 60%
    07:00 +14°C° 0 mm 2 m/S 759 mmHg 57%
    08:00 +16°C° 0 mm 2 m/S 760 mmHg 53%
    09:00 +18°C° 0 mm 2 m/S 761 mmHg 49%
    10:00 +19°C° 0 mm 2 m/S 760 mmHg 44%
    11:00 +21°C° 0 mm 2 m/S 760 mmHg 39%
    12:00 +24°C° 0 mm 1 m/S 759 mmHg 35%
    13:00 +24°C° 0 mm 1 m/S 758 mmHg 33%
    14:00 +25°C° 0 mm 1 m/S 757 mmHg 32%
    15:00 +25°C° 0 mm 1 m/S 756 mmHg 30%
    16:00 +24°C° 0 mm 1 m/S 756 mmHg 34%
    17:00 +22°C° 0 mm 1 m/S 756 mmHg 38%
    18:00 +20°C° 0 mm 1 m/S 756 mmHg 42%
    19:00 +20°C° 0 mm 1 m/S 757 mmHg 44%
    20:00 +19°C° 0 mm 1 m/S 757 mmHg 47%
    21:00 +18°C° 0 mm 1 m/S 758 mmHg 49%
    22:00 +18°C° 0 mm 1 m/S 757 mmHg 50%
    23:00 +18°C° 0 mm 1 m/S 757 mmHg 51%

    26 Januar, Sonntag

    Zeit Temperatur Niederschläge Wind Luftdruck Luftfeuchtigkeit
    00:00 +16°C° 0 mm 2 m/S 757 mmHg 51%
    01:00 +16°C° 0 mm 2 m/S 757 mmHg 54%
    02:00 +16°C° 0 mm 2 m/S 757 mmHg 56%
    03:00 +15°C° 0 mm 2 m/S 756 mmHg 58%
    04:00 +15°C° 0 mm 2 m/S 756 mmHg 60%
    05:00 +14°C° 0 mm 2 m/S 756 mmHg 63%
    06:00 +14°C° 0 mm 2 m/S 756 mmHg 65%
    07:00 +16°C° 0 mm 2 m/S 757 mmHg 60%
    08:00 +17°C° 0 mm 2 m/S 758 mmHg 56%
    09:00 +19°C° 0 mm 3 m/S 759 mmHg 52%
    10:00 +21°C° 0 mm 3 m/S 758 mmHg 47%
    11:00 +23°C° 0 mm 2 m/S 758 mmHg 42%
    12:00 +25°C° 0 mm 2 m/S 758 mmHg 37%
    13:00 +25°C° 0 mm 3 m/S 757 mmHg 34%
    14:00 +26°C° 0 mm 3 m/S 756 mmHg 32%
    15:00 +26°C° 0 mm 3 m/S 755 mmHg 30%
    16:00 +24°C° 0 mm 3 m/S 755 mmHg 33%
    17:00 +22°C° 0 mm 3 m/S 755 mmHg 37%
    18:00 +20°C° 0 mm 2 m/S 755 mmHg 40%
    19:00 +20°C° 0 mm 2 m/S 756 mmHg 42%
    20:00 +19°C° 0 mm 2 m/S 756 mmHg 43%
    21:00 +18°C° 0 mm 2 m/S 757 mmHg 45%
    22:00 +18°C° 0 mm 2 m/S 757 mmHg 46%
    23:00 +17°C° 0 mm 2 m/S 757 mmHg 48%

    27 Januar, Montag

    Zeit Temperatur Niederschläge Wind Luftdruck Luftfeuchtigkeit
    00:00 +17°C° 0 mm 2 m/S 757 mmHg 50%
    01:00 +16°C° 0 mm 2 m/S 756 mmHg 52%
    02:00 +16°C° 0 mm 2 m/S 756 mmHg 55%
    03:00 +15°C° 0 mm 2 m/S 755 mmHg 57%
    04:00 +15°C° 0 mm 2 m/S 756 mmHg 60%
    05:00 +15°C° 0 mm 2 m/S 756 mmHg 63%
    06:00 +14°C° 0 mm 2 m/S 756 mmHg 65%
    07:00 +16°C° 0 mm 2 m/S 757 mmHg 62%
    08:00 +17°C° 0 mm 2 m/S 758 mmHg 58%
    09:00 +19°C° 0 mm 2 m/S 758 mmHg 54%
    10:00 +20°C° 0 mm 2 m/S 758 mmHg 49%
    11:00 +23°C° 0 mm 2 m/S 758 mmHg 44%
    12:00 +24°C° 0 mm 2 m/S 757 mmHg 40%
    13:00 +25°C° 0 mm 2 m/S 756 mmHg 37%
    14:00 +26°C° 0 mm 2 m/S 756 mmHg 35%
    15:00 +26°C° 0 mm 3 m/S 755 mmHg 32%
    16:00 +25°C° 0 mm 2 m/S 755 mmHg 36%
    17:00 +23°C° 0 mm 2 m/S 755 mmHg 40%
    18:00 +21°C° 0 mm 2 m/S 755 mmHg 44%
    19:00 +20°C° 0 mm 2 m/S 755 mmHg 45%
    20:00 +19°C° 0 mm 2 m/S 756 mmHg 47%
    21:00 +20°C° 0 mm 1 m/S 756 mmHg 48%
    22:00 +19°C° 0 mm 1 m/S 756 mmHg 50%
    23:00 +18°C° 0 mm 2 m/S 756 mmHg 51%

    28 Januar, Dienstag

    Zeit Temperatur Niederschläge Wind Luftdruck Luftfeuchtigkeit
    00:00 +17°C° 0 mm 2 m/S 756 mmHg 53%
    01:00 +17°C° 0 mm 2 m/S 756 mmHg 55%
    02:00 +16°C° 0 mm 2 m/S 756 mmHg 56%
    03:00 +16°C° 0 mm 2 m/S 755 mmHg 58%
    04:00 +15°C° 0 mm 2 m/S 756 mmHg 60%
    05:00 +15°C° 0 mm 2 m/S 756 mmHg 61%
    06:00 +15°C° 0 mm 2 m/S 756 mmHg 63%
    07:00 +16°C° 0 mm 2 m/S 757 mmHg 59%
    08:00 +18°C° 0 mm 2 m/S 758 mmHg 54%
    09:00 +20°C° 0 mm 2 m/S 758 mmHg 50%
    10:00 +22°C° 0 mm 1 m/S 758 mmHg 44%
    11:00 +24°C° 0 mm 1 m/S 758 mmHg 38%
    12:00 +24°C° 0 mm 0 m/S 758 mmHg 32%
    13:00 +26°C° 0 mm 1 m/S 757 mmHg 30%
    14:00 +26°C° 0 mm 1 m/S 756 mmHg 28%
    15:00 +27°C° 0 mm 1 m/S 756 mmHg 26%
    16:00 +25°C° 0 mm 1 m/S 756 mmHg 30%
    17:00 +24°C° 0 mm 1 m/S 756 mmHg 34%
    18:00 +22°C° 0 mm 1 m/S 756 mmHg 38%
    19:00 +21°C° 0 mm 1 m/S 756 mmHg 39%
    20:00 +20°C° 0 mm 1 m/S 757 mmHg 41%
    21:00 +20°C° 0 mm 1 m/S 757 mmHg 43%
    22:00 +19°C° 0 mm 1 m/S 757 mmHg 44%
    23:00 +19°C° 0 mm 1 m/S 757 mmHg 45%
    Mehr zeigen